Regional Weather Roundup
Issued by NWS

Home | Current Version | Previous Version | Graphics & Text | Print | Product List | Glossary On
Versions: 1 2 3 4 5 6 7 8 9 10 11 12 13 14 15 16 17 18 19 20 21 22 23 24 25 26 27 28 29 30 31 32 33 34 35 36 37 38 39 40 41 42 43 44 45 46 47 48 49 50
000
ASUS43 KBIS 262301
RWRND

NORTH DAKOTA REGIONAL WEATHER ROUNDUP
NATIONAL WEATHER SERVICE BISMARCK ND
600 PM CDT TUE MAY 26 2015

NOTE: "FAIR" INDICATES FEW OR NO CLOUDS BELOW 12,000 FEET WITH NO
SIGNIFICANT WEATHER AND/OR OBSTRUCTIONS TO VISIBILITY.


NDZ001>003-009>011-017-270000-
NORTHWEST NORTH DAKOTA

CITY           SKY/WX    TMP DP  RH WIND       PRES   REMARKS
WILLISTON      SUNNY     81  42  25 CALM      29.86F
MINOT          LGT RAIN  72  46  39 CALM      29.85R
MINOT AFB      PTSUNNY   76  45  32 E9        29.84R
$$

NDZ018>021-031>035-040>046-270000-
SOUTHWEST NORTH DAKOTA

CITY           SKY/WX    TMP DP  RH WIND       PRES   REMARKS
BISMARCK       LGT RAIN  74  51  44 NE14      29.86S
DICKINSON      CLOUDY    74  43  32 SW10      29.89S
GARRISON         N/A     75  47  36 E13       29.87S
HETTINGER ARPT MOSUNNY   72  47  40 SE7       29.93F
$$

NDZ004>008-012>016-024-026-027-054-270000-
NORTHEAST NORTH DAKOTA

CITY           SKY/WX    TMP DP  RH WIND       PRES   REMARKS
GRAND FORKS    PTSUNNY   78  47  33 NW3       29.73S
GRND FRKS AFB  PTSUNNY   75  52  43 SW6       29.74F
DEVILS LAKE    MOSUNNY   81  41  24 W10       29.78S
$$

NDZ022-023-025-028>030-036>039-047>053-270000-
SOUTHEAST NORTH DAKOTA

CITY           SKY/WX    TMP DP  RH WIND       PRES   REMARKS
FARGO          CLOUDY    76  56  49 S9        29.76F
JAMESTOWN      PTSUNNY   73  47  39 W6        29.80R
$$




USA.gov is the U.S. government's official web portal to all federal, state and local government web resources and services.